Time,TemperatureF,DewpointF,PressureIn,WindDirection,WindDirectionDegrees,WindSpeedMPH,WindSpeedGustMPH,Humidity,HourlyPrecipIn,Conditions,Clouds,dailyrainin,SolarRadiationWatts/m^2,SoftwareType,DateUTC
2014-08-27 00:02:00,61.1,56.6,29.98,ESE,122,5.1,5.8,85,0.00,CLR,,0.00,0.0,WeatherDisplay:10.37,2014-08-27 07:02:00,
2014-08-27 00:07:00,60.9,56.4,29.98,ESE,119,5.2,6.9,85,0.00,CLR,,0.00,0.0,WeatherDisplay:10.37,2014-08-27 07:07:00,
2014-08-27 00:12:00,60.8,56.3,29.98,SE,124,2.8,4.6,85,0.00,CLR,,0.00,0.0,WeatherDisplay:10.37,2014-08-27 07:12:00,
2014-08-27 00:17:00,60.7,56.2,29.98,SE,129,2.8,4.6,85,0.00,CLR,,0.00,0.0,WeatherDisplay:10.37,2014-08-27 07:17:00,
2014-08-27 00:22:00,60.6,56.4,29.98,ESE,110,3.3,4.6,86,0.00,CLR,,0.00,0.0,WeatherDisplay:10.37,2014-08-27 07:22:00,
2014-08-27 00:27:00,60.5,56.3,29.98,ESE,105,0.8,3.5,86,0.00,CLR,,0.00,0.0,WeatherDisplay:10.37,2014-08-27 07:27:00,
2014-08-27 00:32:00,60.4,56.2,29.98,ESE,117,2.2,2.3,86,0.00,CLR,,0.00,0.0,WeatherDisplay:10.37,2014-08-27 07:32:00,
2014-08-27 00:37:00,60.3,56.4,29.98,ESE,105,1.9,4.6,87,0.00,CLR,,0.00,0.0,WeatherDisplay:10.37,2014-08-27 07:37:00,
2014-08-27 00:42:00,60.3,56.4,29.98,SE,126,2.8,4.0,87,0.00,CLR,,0.00,0.0,WeatherDisplay:10.37,2014-08-27 07:42:00,
2014-08-27 00:47:00,60.2,56.3,29.98,SE,140,2.7,4.6,87,0.00,CLR,,0.00,0.0,WeatherDisplay:10.37,2014-08-27 07:47:00,
2014-08-27 00:52:00,60.2,56.6,29.98,ESE,112,2.3,3.5,88,0.00,CLR,,0.00,0.0,WeatherDisplay:10.37,2014-08-27 07:52:00,
2014-08-27 00:57:00,60.2,56.6,29.98,ESE,110,1.1,1.2,88,0.00,CLR,,0.00,0.0,WeatherDisplay:10.37,2014-08-27 07:57:00,
2014-08-27 01:02:00,60.1,56.5,29.98,ESE,121,2.2,3.5,88,0.00,CLR,,0.00,0.0,WeatherDisplay:10.37,2014-08-27 08:02:00,
2014-08-27 01:07:00,60.1,56.5,29.99,ESE,122,0.9,3.5,88,0.00,CLR,,0.00,0.0,WeatherDisplay:10.37,2014-08-27 08:07:00,
2014-08-27 01:12:00,60.1,56.5,29.99,ESE,121,1.7,3.5,88,0.00,CLR,,0.00,0.0,WeatherDisplay:10.37,2014-08-27 08:12:00,
2014-08-27 01:17:00,60.0,56.4,29.99,ESE,121,2.3,3.5,88,0.00,CLR,,0.00,0.0,WeatherDisplay:10.37,2014-08-27 08:17:00,
2014-08-27 01:22:00,60.0,56.4,29.98,ESE,121,2.0,3.5,88,0.00,CLR,,0.00,0.0,WeatherDisplay:10.37,2014-08-27 08:22:00,
2014-08-27 01:27:00,60.0,56.4,29.98,ESE,122,2.3,3.5,88,0.00,CLR,,0.00,0.0,WeatherDisplay:10.37,2014-08-27 08:27:00,
2014-08-27 01:32:00,60.0,56.4,29.98,ESE,120,1.8,3.5,88,0.00,CLR,,0.00,0.0,WeatherDisplay:10.37,2014-08-27 08:32:00,
2014-08-27 01:37:00,60.0,56.4,29.98,ESE,121,1.6,2.3,88,0.00,CLR,,0.00,0.0,WeatherDisplay:10.37,2014-08-27 08:37:00,
2014-08-27 01:42:00,60.0,56.4,29.98,ESE,120,1.0,2.3,88,0.00,CLR,,0.00,0.0,WeatherDisplay:10.37,2014-08-27 08:42:00,
2014-08-27 01:47:00,60.0,56.4,29.98,ESE,121,1.8,3.5,88,0.00,CLR,,0.00,0.0,WeatherDisplay:10.37,2014-08-27 08:47:00,
2014-08-27 01:52:00,60.0,56.4,29.98,ESE,122,1.3,3.5,88,0.00,CLR,,0.00,0.0,WeatherDisplay:10.37,2014-08-27 08:52:00,
2014-08-27 01:57:00,59.9,56.3,29.98,ESE,122,0.1,3.5,88,0.00,CLR,,0.00,0.0,WeatherDisplay:10.37,2014-08-27 08:57:00,
2014-08-27 02:02:00,59.9,56.3,29.98,ESE,121,1.3,2.3,88,0.00,CLR,,0.00,0.0,WeatherDisplay:10.37,2014-08-27 09:02:00,
2014-08-27 02:07:00,59.9,56.6,29.99,ESE,122,0.5,2.3,89,0.00,CLR,,0.00,0.0,WeatherDisplay:10.37,2014-08-27 09:07:00,
2014-08-27 02:12:00,59.9,56.3,29.98,ESE,122,0.6,1.2,88,0.00,CLR,,0.00,0.0,WeatherDisplay:10.37,2014-08-27 09:12:00,
2014-08-27 02:17:00,59.9,56.6,29.99,ESE,121,1.2,2.3,89,0.00,CLR,,0.00,0.0,WeatherDisplay:10.37,2014-08-27 09:17:00,
2014-08-27 02:22:00,59.9,56.6,29.98,ESE,122,0.5,2.3,89,0.00,CLR,,0.00,0.0,WeatherDisplay:10.37,2014-08-27 09:22:00,
2014-08-27 02:27:00,60.0,56.7,29.99,ESE,122,1.2,2.3,89,0.00,CLR,,0.00,0.0,WeatherDisplay:10.37,2014-08-27 09:27:00,
2014-08-27 02:32:00,60.0,56.4,29.99,ESE,121,1.5,2.3,88,0.00,CLR,,0.00,0.0,WeatherDisplay:10.37,2014-08-27 09:32:00,
2014-08-27 02:37:00,59.9,56.3,29.99,ESE,121,1.7,3.5,88,0.00,CLR,,0.00,0.0,WeatherDisplay:10.37,2014-08-27 09:37:00,
2014-08-27 02:42:00,59.9,56.6,29.99,ESE,120,1.2,2.3,89,0.00,CLR,,0.00,0.0,WeatherDisplay:10.37,2014-08-27 09:42:00,
2014-08-27 02:47:00,59.8,56.6,29.99,ESE,122,2.2,3.5,89,0.00,CLR,,0.00,0.0,WeatherDisplay:10.37,2014-08-27 09:47:00,
2014-08-27 02:52:00,59.8,56.6,29.99,ESE,121,1.0,2.3,89,0.00,CLR,,0.00,0.0,WeatherDisplay:10.37,2014-08-27 09:52:00,
2014-08-27 02:57:00,59.8,56.6,29.99,ESE,121,0.6,1.2,89,0.00,CLR,,0.00,0.0,WeatherDisplay:10.37,2014-08-27 09:57:00,
2014-08-27 03:02:00,59.8,56.9,29.99,ESE,121,1.0,2.3,90,0.00,CLR,,0.00,0.0,WeatherDisplay:10.37,2014-08-27 10:02:00,
2014-08-27 03:07:00,59.8,56.9,29.99,ESE,120,0.7,1.2,90,0.00,CLR,,0.00,0.0,WeatherDisplay:10.37,2014-08-27 10:07:00,
2014-08-27 03:12:00,59.9,56.6,29.99,ESE,123,1.7,2.3,89,0.00,CLR,,0.00,0.0,WeatherDisplay:10.37,2014-08-27 10:12:00,
2014-08-27 03:17:00,59.8,56.9,29.99,ESE,122,1.2,2.0,90,0.00,CLR,,0.00,0.0,WeatherDisplay:10.37,2014-08-27 10:17:00,
2014-08-27 03:22:00,59.8,56.6,29.99,ESE,120,1.7,2.3,89,0.00,CLR,,0.00,0.0,WeatherDisplay:10.37,2014-08-27 10:22:00,
2014-08-27 03:27:00,59.7,56.8,29.99,ESE,120,1.9,3.0,90,0.00,CLR,,0.00,0.0,WeatherDisplay:10.37,2014-08-27 10:27:00,
2014-08-27 03:32:00,59.7,56.5,29.99,ESE,120,1.5,3.5,89,0.00,CLR,,0.00,0.0,WeatherDisplay:10.37,2014-08-27 10:32:00,
2014-08-27 03:37:00,59.7,56.5,29.99,ESE,121,1.7,3.5,89,0.00,CLR,,0.00,0.0,WeatherDisplay:10.37,2014-08-27 10:37:00,
2014-08-27 03:42:00,59.6,56.4,29.99,ESE,122,2.0,3.5,89,0.00,CLR,,0.00,0.0,WeatherDisplay:10.37,2014-08-27 10:42:00,
2014-08-27 03:47:00,59.6,56.4,29.99,ESE,120,1.3,3.5,89,0.00,CLR,,0.00,0.0,WeatherDisplay:10.37,2014-08-27 10:47:00,
2014-08-27 03:52:00,59.5,56.3,29.99,ESE,120,1.9,3.5,89,0.00,CLR,,0.00,0.0,WeatherDisplay:10.37,2014-08-27 10:52:00,
2014-08-27 03:57:00,59.5,56.6,29.99,ESE,120,1.7,3.0,90,0.00,CLR,,0.00,0.0,WeatherDisplay:10.37,2014-08-27 10:57:00,
2014-08-27 04:02:00,59.5,56.6,29.99,ESE,121,1.7,3.5,90,0.00,CLR,,0.00,0.0,WeatherDisplay:10.37,2014-08-27 11:02:00,
2014-08-27 04:07:00,59.5,56.6,29.99,ESE,121,1.2,2.3,90,0.00,CLR,,0.00,0.0,WeatherDisplay:10.37,2014-08-27 11:07:00,
2014-08-27 04:13:00,59.5,56.6,29.99,ESE,122,2.3,3.5,90,0.00,CLR,,0.00,0.0,WeatherDisplay:10.37,2014-08-27 11:13:00,
2014-08-27 04:18:00,59.5,56.6,29.99,ESE,121,1.0,2.3,90,0.00,CLR,,0.00,0.0,WeatherDisplay:10.37,2014-08-27 11:18:00,
2014-08-27 04:23:00,59.4,56.5,29.99,ESE,121,1.5,2.3,90,0.00,CLR,,0.00,0.0,WeatherDisplay:10.37,2014-08-27 11:23:00,
2014-08-27 04:28:00,59.4,56.5,29.99,ESE,121,1.2,2.3,90,0.00,CLR,,0.00,0.0,WeatherDisplay:10.37,2014-08-27 11:28:00,
2014-08-27 04:33:00,59.5,56.9,29.99,ESE,121,1.1,2.3,91,0.00,CLR,,0.00,0.0,WeatherDisplay:10.37,2014-08-27 11:33:00,
2014-08-27 04:38:00,59.5,56.9,29.99,ESE,122,0.7,1.2,91,0.00,CLR,,0.00,0.0,WeatherDisplay:10.37,2014-08-27 11:38:00,
2014-08-27 04:43:00,59.5,56.9,30.00,ESE,121,1.0,2.3,91,0.00,CLR,,0.00,0.0,WeatherDisplay:10.37,2014-08-27 11:43:00,
2014-08-27 04:48:00,59.5,56.9,29.99,ESE,122,2.0,3.5,91,0.00,CLR,,0.00,0.0,WeatherDisplay:10.37,2014-08-27 11:48:00,
2014-08-27 04:53:00,59.4,56.8,29.99,ESE,120,0.6,2.3,91,0.00,CLR,,0.00,0.0,WeatherDisplay:10.37,2014-08-27 11:53:00,
2014-08-27 04:58:00,59.4,56.8,30.00,ESE,122,1.4,2.3,91,0.00,CLR,,0.00,0.0,WeatherDisplay:10.37,2014-08-27 11:58:00,
2014-08-27 05:03:00,59.4,56.8,30.00,ESE,121,1.9,3.5,91,0.00,CLR,,0.00,0.0,WeatherDisplay:10.37,2014-08-27 12:03:00,
2014-08-27 05:08:00,59.4,56.8,30.00,ESE,121,1.6,2.3,91,0.00,CLR,,0.00,0.0,WeatherDisplay:10.37,2014-08-27 12:08:00,
2014-08-27 05:13:00,59.4,56.8,30.00,ESE,120,2.0,2.3,91,0.00,CLR,,0.00,0.0,WeatherDisplay:10.37,2014-08-27 12:13:00,
2014-08-27 05:18:00,59.3,56.7,30.00,ESE,120,2.1,3.5,91,0.00,CLR,,0.00,0.0,WeatherDisplay:10.37,2014-08-27 12:18:00,
2014-08-27 05:23:00,59.4,57.1,30.00,ESE,122,1.4,2.3,92,0.00,CLR,,0.00,0.0,WeatherDisplay:10.37,2014-08-27 12:23:00,
2014-08-27 05:28:00,59.4,57.1,30.00,ESE,121,1.1,2.3,92,0.00,CLR,,0.00,0.0,WeatherDisplay:10.37,2014-08-27 12:28:00,
2014-08-27 05:33:00,59.4,57.1,30.00,ESE,123,2.0,3.5,92,0.00,CLR,,0.00,0.0,WeatherDisplay:10.37,2014-08-27 12:33:00,
2014-08-27 05:38:00,59.3,56.7,30.00,ESE,121,1.9,3.5,91,0.00,CLR,,0.00,0.0,WeatherDisplay:10.37,2014-08-27 12:38:00,
2014-08-27 05:43:00,59.3,56.7,30.00,ESE,122,1.5,2.3,91,0.00,CLR,,0.00,0.0,WeatherDisplay:10.37,2014-08-27 12:43:00,
2014-08-27 05:48:00,59.2,56.6,30.01,ESE,122,1.4,2.3,91,0.00,CLR,,0.00,0.0,WeatherDisplay:10.37,2014-08-27 12:48:00,
2014-08-27 05:53:00,59.1,56.5,30.00,ESE,122,1.2,2.3,91,0.00,CLR,,0.00,0.0,WeatherDisplay:10.37,2014-08-27 12:53:00,
2014-08-27 05:58:00,59.1,56.8,30.01,ESE,122,1.5,2.3,92,0.00,CLR,,0.00,0.0,WeatherDisplay:10.37,2014-08-27 12:58:00,
2014-08-27 06:03:00,59.1,56.8,30.01,ESE,121,2.2,3.5,92,0.00,CLR,,0.00,0.0,WeatherDisplay:10.37,2014-08-27 13:03:00,
2014-08-27 06:08:00,59.1,56.8,30.01,ESE,122,2.7,3.5,92,0.00,CLR,,0.00,0.0,WeatherDisplay:10.37,2014-08-27 13:08:00,
2014-08-27 06:13:00,59.1,56.8,30.01,ESE,120,2.2,3.5,92,0.00,CLR,,0.00,0.0,WeatherDisplay:10.37,2014-08-27 13:13:00,
2014-08-27 06:18:00,59.0,56.7,30.01,ESE,122,1.7,2.3,92,0.00,CLR,,0.00,0.0,WeatherDisplay:10.37,2014-08-27 13:18:00,
2014-08-27 06:23:00,59.0,56.7,30.01,ESE,122,1.5,3.5,92,0.00,CLR,,0.00,0.0,WeatherDisplay:10.37,2014-08-27 13:23:00,
2014-08-27 06:28:00,58.9,56.6,30.01,ESE,120,2.4,3.5,92,0.00,CLR,,0.00,0.0,WeatherDisplay:10.37,2014-08-27 13:28:00,
2014-08-27 06:33:00,58.9,56.6,30.01,ESE,120,2.9,4.0,92,0.00,CLR,,0.00,0.0,WeatherDisplay:10.37,2014-08-27 13:33:00,
2014-08-27 06:38:00,59.0,56.7,30.01,ESE,120,2.3,3.5,92,0.00,CLR,,0.00,0.0,WeatherDisplay:10.37,2014-08-27 13:38:00,
2014-08-27 06:43:00,59.0,56.7,30.02,ESE,121,2.1,3.5,92,0.00,CLR,,0.00,7.0,WeatherDisplay:10.37,2014-08-27 13:43:00,
2014-08-27 06:48:00,59.0,57.0,30.02,ESE,123,1.2,2.3,93,0.00,CLR,,0.00,9.0,WeatherDisplay:10.37,2014-08-27 13:48:00,
2014-08-27 06:53:00,59.0,57.0,30.02,ESE,120,1.2,3.5,93,0.00,CLR,,0.00,11.0,WeatherDisplay:10.37,2014-08-27 13:53:00,
2014-08-27 06:58:00,59.0,57.0,30.02,ESE,120,1.6,2.3,93,0.00,CLR,,0.00,12.0,WeatherDisplay:10.37,2014-08-27 13:58:00,
2014-08-27 07:03:00,59.0,56.7,30.02,ESE,120,1.4,2.3,92,0.00,CLR,,0.00,14.0,WeatherDisplay:10.37,2014-08-27 14:03:00,
2014-08-27 07:08:00,59.1,57.1,30.02,SSE,156,1.1,2.3,93,0.00,CLR,,0.00,18.0,WeatherDisplay:10.37,2014-08-27 14:08:00,
2014-08-27 07:13:00,59.2,57.2,30.02,SSE,156,0.0,2.3,93,0.00,CLR,,0.00,19.0,WeatherDisplay:10.37,2014-08-27 14:13:00,
2014-08-27 07:18:00,59.2,57.2,30.02,SSE,161,1.2,2.3,93,0.00,CLR,,0.00,21.0,WeatherDisplay:10.37,2014-08-27 14:18:00,
2014-08-27 07:23:00,59.2,57.2,30.02,East,86,2.3,3.5,93,0.00,CLR,,0.00,51.0,WeatherDisplay:10.37,2014-08-27 14:23:00,
2014-08-27 07:28:00,59.3,57.3,30.02,ENE,71,2.2,3.5,93,0.00,CLR,,0.00,81.0,WeatherDisplay:10.37,2014-08-27 14:28:00,
2014-08-27 07:33:00,59.5,57.5,30.02,ENE,71,1.6,3.5,93,0.00,CLR,,0.00,102.0,WeatherDisplay:10.37,2014-08-27 14:33:00,
2014-08-27 07:38:00,59.8,57.8,30.02,ENE,71,3.1,4.0,93,0.00,CLR,,0.00,62.0,WeatherDisplay:10.37,2014-08-27 14:38:00,
2014-08-27 07:43:00,60.2,57.9,30.02,ENE,70,0.8,2.3,92,0.00,CLR,,0.00,128.0,WeatherDisplay:10.37,2014-08-27 14:43:00,
2014-08-27 07:48:00,60.6,58.3,30.03,ENE,70,0.1,0.0,92,0.00,CLR,,0.00,118.0,WeatherDisplay:10.37,2014-08-27 14:48:00,
2014-08-27 07:53:00,61.3,58.7,30.03,ENE,72,1.0,2.3,91,0.00,CLR,,0.00,93.0,WeatherDisplay:10.37,2014-08-27 14:53:00,
2014-08-27 07:58:00,61.8,58.8,30.03,ENE,72,1.1,3.5,90,0.00,CLR,,0.00,63.0,WeatherDisplay:10.37,2014-08-27 14:58:00,
2014-08-27 08:03:00,62.3,59.0,30.03,ENE,71,0.0,0.0,89,0.00,CLR,,0.00,42.0,WeatherDisplay:10.37,2014-08-27 15:03:00,
2014-08-27 08:08:00,63.0,59.4,30.03,ENE,71,0.1,0.0,88,0.00,CLR,,0.00,35.0,WeatherDisplay:10.37,2014-08-27 15:08:00,
2014-08-27 08:13:00,63.6,59.3,30.03,ENE,72,0.6,1.2,86,0.00,CLR,,0.00,35.0,WeatherDisplay:10.37,2014-08-27 15:13:00,
2014-08-27 08:18:00,64.1,59.5,30.03,ENE,72,1.6,3.5,85,0.00,CLR,,0.00,35.0,WeatherDisplay:10.37,2014-08-27 15:18:00,
2014-08-27 08:23:00,64.7,59.8,30.03,ENE,71,1.3,3.5,84,0.00,CLR,,0.00,35.0,WeatherDisplay:10.37,2014-08-27 15:23:00,
2014-08-27 08:28:00,65.2,59.9,30.03,ENE,70,0.0,2.3,83,0.00,CLR,,0.00,37.0,WeatherDisplay:10.37,2014-08-27 15:28:00,
2014-08-27 08:33:00,65.8,60.2,30.03,ENE,72,0.0,1.2,82,0.00,CLR,,0.00,37.0,WeatherDisplay:10.37,2014-08-27 15:33:00,
2014-08-27 08:38:00,66.5,60.1,30.03,ENE,72,1.3,2.3,80,0.00,CLR,,0.00,39.0,WeatherDisplay:10.37,2014-08-27 15:38:00,
2014-08-27 08:43:00,66.8,60.1,30.03,ENE,71,1.7,3.5,79,0.00,CLR,,0.00,39.0,WeatherDisplay:10.37,2014-08-27 15:43:00,
2014-08-27 08:48:00,66.9,60.2,30.03,ENE,71,0.8,0.0,79,0.00,CLR,,0.00,40.0,WeatherDisplay:10.37,2014-08-27 15:48:00,
2014-08-27 08:53:00,67.2,60.5,30.03,ENE,73,0.0,1.2,79,0.00,CLR,,0.00,40.0,WeatherDisplay:10.37,2014-08-27 15:53:00,
2014-08-27 08:58:00,67.9,60.4,30.03,ENE,70,0.9,3.0,77,0.00,CLR,,0.00,42.0,WeatherDisplay:10.37,2014-08-27 15:58:00,
2014-08-27 09:03:00,68.3,60.4,30.03,ENE,71,0.1,1.0,76,0.00,CLR,,0.00,44.0,WeatherDisplay:10.37,2014-08-27 16:03:00,
2014-08-27 09:08:00,68.6,60.4,30.03,ENE,72,0.1,1.2,75,0.00,CLR,,0.00,46.0,WeatherDisplay:10.37,2014-08-27 16:08:00,
2014-08-27 09:13:00,69.2,60.9,30.03,ENE,71,0.6,2.3,75,0.00,CLR,,0.00,47.0,WeatherDisplay:10.37,2014-08-27 16:13:00,
2014-08-27 09:18:00,69.9,60.8,30.03,NNW,332,0.5,3.0,73,0.00,CLR,,0.00,49.0,WeatherDisplay:10.37,2014-08-27 16:18:00,
2014-08-27 09:23:00,70.6,61.1,30.04,NE,51,2.0,4.6,72,0.00,CLR,,0.00,51.0,WeatherDisplay:10.37,2014-08-27 16:23:00,
2014-08-27 09:28:00,71.2,61.3,30.04,NNE,26,1.4,3.5,71,0.00,CLR,,0.00,51.0,WeatherDisplay:10.37,2014-08-27 16:28:00,
2014-08-27 09:33:00,71.7,61.0,30.03,NNE,19,1.9,3.5,69,0.00,CLR,,0.00,53.0,WeatherDisplay:10.37,2014-08-27 16:33:00,
2014-08-27 09:38:00,72.4,61.2,30.04,North,11,1.4,3.5,68,0.00,CLR,,0.00,70.0,WeatherDisplay:10.37,2014-08-27 16:38:00,
2014-08-27 09:43:00,72.8,61.2,30.04,North,360,0.3,2.3,67,0.00,CLR,,0.00,137.0,WeatherDisplay:10.37,2014-08-27 16:43:00,
2014-08-27 09:48:00,73.2,61.6,30.04,North,351,0.8,2.3,67,0.00,CLR,,0.00,241.0,WeatherDisplay:10.37,2014-08-27 16:48:00,
2014-08-27 09:53:00,73.6,61.1,30.04,North,351,0.7,3.5,65,0.00,CLR,,0.00,392.0,WeatherDisplay:10.37,2014-08-27 16:53:00,
2014-08-27 09:58:00,74.1,61.6,30.04,North,354,1.6,2.3,65,0.00,CLR,,0.00,517.0,WeatherDisplay:10.37,2014-08-27 16:58:00,
2014-08-27 10:03:00,74.8,61.8,30.04,North,353,0.5,1.2,64,0.00,CLR,,0.00,585.0,WeatherDisplay:10.37,2014-08-27 17:03:00,
2014-08-27 10:08:00,75.0,61.1,30.04,North,350,1.1,2.3,62,0.00,CLR,,0.00,603.0,WeatherDisplay:10.37,2014-08-27 17:08:00,
2014-08-27 10:13:00,75.3,61.8,30.04,North,1,1.6,3.5,63,0.00,CLR,,0.00,619.0,WeatherDisplay:10.37,2014-08-27 17:13:00,
2014-08-27 10:18:00,76.0,61.6,30.04,North,1,1.3,3.5,61,0.00,CLR,,0.00,633.0,WeatherDisplay:10.37,2014-08-27 17:18:00,
2014-08-27 10:23:00,76.7,61.3,30.04,North,3,1.3,3.5,59,0.00,CLR,,0.00,645.0,WeatherDisplay:10.37,2014-08-27 17:23:00,
2014-08-27 10:28:00,77.3,60.9,30.04,NNW,332,2.2,3.5,57,0.00,CLR,,0.00,657.0,WeatherDisplay:10.37,2014-08-27 17:28:00,
2014-08-27 10:33:00,77.4,61.5,30.04,NNE,33,0.6,2.3,58,0.00,CLR,,0.00,673.0,WeatherDisplay:10.37,2014-08-27 17:33:00,
2014-08-27 10:38:00,78.0,61.5,30.04,NNE,15,1.5,3.5,57,0.00,CLR,,0.00,686.0,WeatherDisplay:10.37,2014-08-27 17:38:00,
2014-08-27 10:43:00,78.6,61.1,30.04,North,10,2.4,3.5,55,0.00,CLR,,0.00,700.0,WeatherDisplay:10.37,2014-08-27 17:43:00,
2014-08-27 10:48:00,79.1,61.5,30.04,ENE,58,3.4,6.9,55,0.00,CLR,,0.00,710.0,WeatherDisplay:10.37,2014-08-27 17:48:00,
2014-08-27 10:53:00,79.4,61.3,30.04,NNW,340,2.8,4.6,54,0.00,CLR,,0.00,721.0,WeatherDisplay:10.37,2014-08-27 17:53:00,
2014-08-27 10:58:00,79.7,61.6,30.04,NNW,334,1.8,3.5,54,0.00,CLR,,0.00,731.0,WeatherDisplay:10.37,2014-08-27 17:58:00,
2014-08-27 11:03:00,80.2,61.0,30.04,NW,326,2.2,3.5,52,0.00,CLR,,0.00,738.0,WeatherDisplay:10.37,2014-08-27 18:03:00,
2014-08-27 11:08:00,79.6,61.0,30.04,NW,324,2.6,3.5,53,0.00,CLR,,0.00,742.0,WeatherDisplay:10.37,2014-08-27 18:08:00,
2014-08-27 11:13:00,79.7,61.1,30.03,NW,316,1.2,3.5,53,0.00,CLR,,0.00,754.0,WeatherDisplay:10.37,2014-08-27 18:13:00,
2014-08-27 11:18:00,80.3,61.1,30.03,NW,318,2.9,4.0,52,0.00,CLR,,0.00,763.0,WeatherDisplay:10.37,2014-08-27 18:18:00,
2014-08-27 11:23:00,80.9,61.1,30.03,North,3,1.9,3.5,51,0.00,CLR,,0.00,575.0,WeatherDisplay:10.37,2014-08-27 18:23:00,
2014-08-27 11:28:00,81.6,61.2,30.03,NNW,339,0.8,3.0,50,0.00,CLR,,0.00,788.0,WeatherDisplay:10.37,2014-08-27 18:28:00,
2014-08-27 11:33:00,82.0,61.5,30.03,NE,42,1.4,3.5,50,0.00,CLR,,0.00,793.0,WeatherDisplay:10.37,2014-08-27 18:33:00,
2014-08-27 11:38:00,82.3,61.2,30.03,ENE,68,1.6,3.5,49,0.00,CLR,,0.00,800.0,WeatherDisplay:10.37,2014-08-27 18:38:00,
2014-08-27 11:43:00,82.8,61.7,30.03,NNE,13,1.2,2.3,49,0.00,CLR,,0.00,807.0,WeatherDisplay:10.37,2014-08-27 18:43:00,
2014-08-27 11:48:00,83.2,62.1,30.03,North,6,4.6,6.9,49,0.00,CLR,,0.00,817.0,WeatherDisplay:10.37,2014-08-27 18:48:00,
2014-08-27 11:53:00,83.6,61.8,30.03,NNW,345,3.3,4.6,48,0.00,CLR,,0.00,819.0,WeatherDisplay:10.37,2014-08-27 18:53:00,
2014-08-27 11:58:00,83.9,62.7,30.03,NNE,25,1.7,3.0,49,0.00,CLR,,0.00,828.0,WeatherDisplay:10.37,2014-08-27 18:58:00,
2014-08-27 12:03:00,84.2,62.4,30.02,North,353,3.6,4.6,48,0.00,CLR,,0.00,830.0,WeatherDisplay:10.37,2014-08-27 19:03:00,
2014-08-27 12:08:00,84.3,62.5,30.02,NNW,340,2.1,4.0,48,0.00,CLR,,0.00,840.0,WeatherDisplay:10.37,2014-08-27 19:08:00,
2014-08-27 12:13:00,84.7,62.8,30.02,NNE,28,3.9,8.1,48,0.00,CLR,,0.00,846.0,WeatherDisplay:10.37,2014-08-27 19:13:00,
2014-08-27 12:18:00,84.9,62.4,30.02,WNW,297,2.5,3.5,47,0.00,CLR,,0.00,847.0,WeatherDisplay:10.37,2014-08-27 19:18:00,
2014-08-27 12:23:00,85.1,62.6,30.02,North,355,2.6,3.5,47,0.00,CLR,,0.00,851.0,WeatherDisplay:10.37,2014-08-27 19:23:00,
2014-08-27 12:28:00,85.4,62.9,30.02,WNW,297,2.4,3.5,47,0.00,CLR,,0.00,853.0,WeatherDisplay:10.37,2014-08-27 19:28:00,
2014-08-27 12:33:00,85.5,63.0,30.02,North,356,1.3,3.5,47,0.00,CLR,,0.00,861.0,WeatherDisplay:10.37,2014-08-27 19:33:00,
2014-08-27 12:38:00,85.9,62.7,30.01,NNW,334,2.6,5.8,46,0.00,CLR,,0.00,861.0,WeatherDisplay:10.37,2014-08-27 19:38:00,
2014-08-27 12:43:00,86.1,62.9,30.01,NNE,21,2.0,4.6,46,0.00,CLR,,0.00,868.0,WeatherDisplay:10.37,2014-08-27 19:43:00,
2014-08-27 12:48:00,86.3,63.1,30.01,NNW,338,3.3,6.9,46,0.00,CLR,,0.00,865.0,WeatherDisplay:10.37,2014-08-27 19:48:00,
2014-08-27 12:53:00,86.5,62.6,30.01,NW,314,1.1,3.5,45,0.00,CLR,,0.00,868.0,WeatherDisplay:10.37,2014-08-27 19:53:00,
2014-08-27 12:58:00,86.7,62.8,30.01,East,84,2.5,5.8,45,0.00,CLR,,0.00,868.0,WeatherDisplay:10.37,2014-08-27 19:58:00,
2014-08-27 13:03:00,86.8,62.9,30.01,North,351,1.7,4.0,45,0.00,CLR,,0.00,870.0,WeatherDisplay:10.37,2014-08-27 20:03:00,
2014-08-27 13:08:00,87.0,63.1,30.01,North,349,5.3,8.1,45,0.00,CLR,,0.00,868.0,WeatherDisplay:10.37,2014-08-27 20:08:00,
2014-08-27 13:14:00,87.2,62.6,30.00,WNW,282,1.3,3.5,44,0.00,CLR,,0.00,870.0,WeatherDisplay:10.37,2014-08-27 20:14:00,
2014-08-27 13:19:00,87.5,62.9,30.00,NNE,23,2.8,4.6,44,0.00,CLR,,0.00,868.0,WeatherDisplay:10.37,2014-08-27 20:19:00,
2014-08-27 13:24:00,87.8,63.2,30.00,North,353,3.5,6.9,44,0.00,CLR,,0.00,867.0,WeatherDisplay:10.37,2014-08-27 20:24:00,
2014-08-27 13:29:00,88.0,62.7,30.00,North,357,2.5,5.8,43,0.00,CLR,,0.00,861.0,WeatherDisplay:10.37,2014-08-27 20:29:00,
2014-08-27 13:34:00,87.9,63.3,30.00,NNE,33,3.4,5.8,44,0.00,CLR,,0.00,860.0,WeatherDisplay:10.37,2014-08-27 20:34:00,
2014-08-27 13:39:00,87.8,63.2,30.00,NNE,30,1.0,4.0,44,0.00,CLR,,0.00,854.0,WeatherDisplay:10.37,2014-08-27 20:39:00,
2014-08-27 13:44:00,87.9,63.3,30.00,NNW,343,2.3,8.0,44,0.00,CLR,,0.00,856.0,WeatherDisplay:10.37,2014-08-27 20:44:00,
2014-08-27 13:49:00,87.9,63.3,30.00,NNE,14,3.9,7.0,44,0.00,CLR,,0.00,849.0,WeatherDisplay:10.37,2014-08-27 20:49:00,
2014-08-27 13:54:00,87.9,63.3,30.00,NW,320,3.7,6.9,44,0.00,CLR,,0.00,846.0,WeatherDisplay:10.37,2014-08-27 20:54:00,
2014-08-27 13:59:00,88.1,62.8,30.00,NNW,332,3.9,4.6,43,0.00,CLR,,0.00,838.0,WeatherDisplay:10.37,2014-08-27 20:59:00,
2014-08-27 14:04:00,88.3,63.0,29.99,North,351,3.7,9.2,43,0.00,CLR,,0.00,833.0,WeatherDisplay:10.37,2014-08-27 21:04:00,
2014-08-27 14:09:00,88.4,63.1,29.99,North,352,2.8,4.6,43,0.00,CLR,,0.00,826.0,WeatherDisplay:10.37,2014-08-27 21:09:00,
2014-08-27 14:14:00,88.6,63.2,29.99,NNW,329,2.0,4.6,43,0.00,CLR,,0.00,821.0,WeatherDisplay:10.37,2014-08-27 21:14:00,
2014-08-27 14:19:00,88.6,63.2,29.99,West,261,3.7,9.2,43,0.00,CLR,,0.00,817.0,WeatherDisplay:10.37,2014-08-27 21:19:00,
2014-08-27 14:24:00,88.7,63.3,29.99,NNW,327,4.5,9.2,43,0.00,CLR,,0.00,814.0,WeatherDisplay:10.37,2014-08-27 21:24:00,
2014-08-27 14:29:00,88.8,63.4,29.99,NW,317,4.4,9.2,43,0.00,CLR,,0.00,807.0,WeatherDisplay:10.37,2014-08-27 21:29:00,
2014-08-27 14:34:00,88.6,63.2,29.99,WSW,246,3.9,6.9,43,0.00,CLR,,0.00,798.0,WeatherDisplay:10.37,2014-08-27 21:34:00,
2014-08-27 14:39:00,88.6,63.2,29.99,WNW,284,2.2,4.6,43,0.00,CLR,,0.00,793.0,WeatherDisplay:10.37,2014-08-27 21:39:00,
2014-08-27 14:44:00,88.5,63.1,29.99,WNW,286,4.2,8.1,43,0.00,CLR,,0.00,782.0,WeatherDisplay:10.37,2014-08-27 21:44:00,
2014-08-27 14:49:00,88.6,62.6,29.99,NW,323,3.4,6.9,42,0.00,CLR,,0.00,775.0,WeatherDisplay:10.37,2014-08-27 21:49:00,
2014-08-27 14:54:00,88.7,62.7,29.98,NNW,337,2.7,4.6,42,0.00,CLR,,0.00,772.0,WeatherDisplay:10.37,2014-08-27 21:54:00,
2014-08-27 14:59:00,89.0,62.9,29.98,NW,318,2.3,9.2,42,0.00,CLR,,0.00,759.0,WeatherDisplay:10.37,2014-08-27 21:59:00,
2014-08-27 15:04:00,89.2,62.4,29.98,NNW,331,3.4,5.8,41,0.00,CLR,,0.00,756.0,WeatherDisplay:10.37,2014-08-27 22:04:00,
2014-08-27 15:09:00,89.3,61.8,29.98,NW,320,2.2,8.0,40,0.00,CLR,,0.00,745.0,WeatherDisplay:10.37,2014-08-27 22:09:00,
2014-08-27 15:14:00,89.4,61.9,29.97,West,274,3.7,6.9,40,0.00,CLR,,0.00,733.0,WeatherDisplay:10.37,2014-08-27 22:14:00,
2014-08-27 15:19:00,89.5,60.5,29.97,WNW,293,6.4,10.4,38,0.00,CLR,,0.00,722.0,WeatherDisplay:10.37,2014-08-27 22:19:00,
2014-08-27 15:24:00,89.5,60.5,29.97,NW,311,3.5,4.6,38,0.00,CLR,,0.00,714.0,WeatherDisplay:10.37,2014-08-27 22:24:00,
2014-08-27 15:29:00,89.5,60.5,29.97,NW,321,2.5,9.2,38,0.00,CLR,,0.00,703.0,WeatherDisplay:10.37,2014-08-27 22:29:00,
2014-08-27 15:34:00,89.5,59.8,29.97,NNW,332,4.3,6.9,37,0.00,CLR,,0.00,691.0,WeatherDisplay:10.37,2014-08-27 22:34:00,
2014-08-27 15:39:00,89.4,59.7,29.97,North,1,2.4,6.0,37,0.00,CLR,,0.00,680.0,WeatherDisplay:10.37,2014-08-27 22:39:00,
2014-08-27 15:44:00,89.4,58.9,29.97,NNW,329,2.2,5.8,36,0.00,CLR,,0.00,668.0,WeatherDisplay:10.37,2014-08-27 22:44:00,
2014-08-27 15:49:00,89.5,59.0,29.97,North,353,4.4,9.2,36,0.00,CLR,,0.00,659.0,WeatherDisplay:10.37,2014-08-27 22:49:00,
2014-08-27 15:54:00,89.6,59.1,29.97,WNW,303,2.7,5.8,36,0.00,CLR,,0.00,649.0,WeatherDisplay:10.37,2014-08-27 22:54:00,
2014-08-27 15:59:00,89.7,59.2,29.97,NW,320,6.3,10.4,36,0.00,CLR,,0.00,635.0,WeatherDisplay:10.37,2014-08-27 22:59:00,
2014-08-27 16:04:00,89.7,60.0,29.97,NNW,332,2.6,4.6,37,0.00,CLR,,0.00,622.0,WeatherDisplay:10.37,2014-08-27 23:04:00,
2014-08-27 16:09:00,89.7,60.0,29.97,West,269,4.4,7.0,37,0.00,CLR,,0.00,605.0,WeatherDisplay:10.37,2014-08-27 23:09:00,
2014-08-27 16:14:00,89.8,60.1,29.97,NW,309,4.2,9.0,37,0.00,CLR,,0.00,594.0,WeatherDisplay:10.37,2014-08-27 23:14:00,
2014-08-27 16:19:00,89.9,60.1,29.97,WNW,297,3.0,5.0,37,0.00,CLR,,0.00,582.0,WeatherDisplay:10.37,2014-08-27 23:19:00,
2014-08-27 16:24:00,89.9,60.1,29.97,NW,326,4.1,4.6,37,0.00,CLR,,0.00,568.0,WeatherDisplay:10.37,2014-08-27 23:24:00,
2014-08-27 16:29:00,90.0,61.0,29.97,WSW,238,3.2,6.9,38,0.00,CLR,,0.00,555.0,WeatherDisplay:10.37,2014-08-27 23:29:00,
2014-08-27 16:34:00,90.2,61.2,29.97,NNW,336,4.7,6.9,38,0.00,CLR,,0.00,541.0,WeatherDisplay:10.37,2014-08-27 23:34:00,
2014-08-27 16:39:00,90.1,61.1,29.97,NW,322,3.5,6.9,38,0.00,CLR,,0.00,526.0,WeatherDisplay:10.37,2014-08-27 23:39:00,
2014-08-27 16:44:00,90.0,60.2,29.97,WNW,285,8.0,11.5,37,0.00,CLR,,0.00,513.0,WeatherDisplay:10.37,2014-08-27 23:44:00,
2014-08-27 16:49:00,89.9,55.2,29.97,NW,319,7.3,11.0,31,0.00,CLR,,0.00,496.0,WeatherDisplay:10.37,2014-08-27 23:49:00,
2014-08-27 16:54:00,89.6,55.0,29.97,NW,311,9.4,11.5,31,0.00,CLR,,0.00,480.0,WeatherDisplay:10.37,2014-08-27 23:54:00,
2014-08-27 16:59:00,89.0,55.3,29.97,WNW,298,7.0,11.5,32,0.00,CLR,,0.00,468.0,WeatherDisplay:10.37,2014-08-27 23:59:00,
2014-08-27 17:04:00,88.9,54.4,29.97,WSW,248,9.4,15.0,31,0.00,CLR,,0.00,452.0,WeatherDisplay:10.37,2014-08-28 00:04:00,
2014-08-27 17:09:00,88.6,53.2,29.97,WSW,256,11.0,12.7,30,0.00,CLR,,0.00,436.0,WeatherDisplay:10.37,2014-08-28 00:09:00,
2014-08-27 17:14:00,88.3,52.9,29.97,WSW,239,9.0,11.5,30,0.00,CLR,,0.00,420.0,WeatherDisplay:10.37,2014-08-28 00:14:00,
2014-08-27 17:19:00,87.8,52.5,29.97,WSW,245,10.0,12.7,30,0.00,CLR,,0.00,403.0,WeatherDisplay:10.37,2014-08-28 00:19:00,
2014-08-27 17:24:00,87.4,52.2,29.97,WSW,241,9.0,12.7,30,0.00,CLR,,0.00,388.0,WeatherDisplay:10.37,2014-08-28 00:24:00,
2014-08-27 17:29:00,87.3,52.1,29.97,WSW,247,10.0,11.5,30,0.00,CLR,,0.00,373.0,WeatherDisplay:10.37,2014-08-28 00:29:00,
2014-08-27 17:34:00,86.9,51.7,29.97,SW,232,8.3,12.7,30,0.00,CLR,,0.00,359.0,WeatherDisplay:10.37,2014-08-28 00:34:00,
2014-08-27 17:39:00,86.8,51.6,29.97,WSW,251,8.8,12.7,30,0.00,CLR,,0.00,341.0,WeatherDisplay:10.37,2014-08-28 00:39:00,
2014-08-27 17:44:00,86.8,51.6,29.97,WSW,255,6.5,9.2,30,0.00,CLR,,0.00,323.0,WeatherDisplay:10.37,2014-08-28 00:44:00,
2014-08-27 17:49:00,87.3,52.1,29.97,SW,232,7.3,9.0,30,0.00,CLR,,0.00,308.0,WeatherDisplay:10.37,2014-08-28 00:49:00,
2014-08-27 17:54:00,87.7,51.5,29.97,WSW,243,8.1,11.5,29,0.00,CLR,,0.00,292.0,WeatherDisplay:10.37,2014-08-28 00:54:00,
2014-08-27 17:59:00,87.5,51.3,29.97,SW,231,2.4,9.2,29,0.00,CLR,,0.00,276.0,WeatherDisplay:10.37,2014-08-28 00:59:00,
2014-08-27 18:04:00,87.6,51.4,29.97,SW,227,2.4,8.1,29,0.00,CLR,,0.00,260.0,WeatherDisplay:10.37,2014-08-28 01:04:00,
2014-08-27 18:09:00,87.8,59.0,29.97,NE,41,3.2,4.6,38,0.00,CLR,,0.00,243.0,WeatherDisplay:10.37,2014-08-28 01:09:00,
2014-08-27 18:14:00,87.2,61.3,29.97,ENE,74,3.5,5.8,42,0.00,CLR,,0.00,229.0,WeatherDisplay:10.37,2014-08-28 01:14:00,
2014-08-27 18:19:00,86.0,60.9,29.97,ENE,62,3.8,4.6,43,0.00,CLR,,0.00,209.0,WeatherDisplay:10.37,2014-08-28 01:19:00,
2014-08-27 18:24:00,85.4,61.6,29.97,ENE,68,3.9,5.8,45,0.00,CLR,,0.00,192.0,WeatherDisplay:10.37,2014-08-28 01:24:00,
2014-08-27 18:29:00,84.6,61.5,29.97,ENE,57,3.1,4.0,46,0.00,CLR,,0.00,174.0,WeatherDisplay:10.37,2014-08-28 01:29:00,
2014-08-27 18:34:00,84.1,62.3,29.97,East,98,3.4,5.8,48,0.00,CLR,,0.00,155.0,WeatherDisplay:10.37,2014-08-28 01:34:00,
2014-08-27 18:39:00,83.2,62.6,29.97,ENE,71,1.4,4.6,50,0.00,CLR,,0.00,135.0,WeatherDisplay:10.37,2014-08-28 01:39:00,
2014-08-27 18:44:00,82.3,62.4,29.97,ENE,75,3.1,4.6,51,0.00,CLR,,0.00,120.0,WeatherDisplay:10.37,2014-08-28 01:44:00,
2014-08-27 18:49:00,81.2,62.4,29.97,East,87,1.9,3.5,53,0.00,CLR,,0.00,104.0,WeatherDisplay:10.37,2014-08-28 01:49:00,
2014-08-27 18:54:00,80.3,62.7,29.97,ENE,78,2.1,3.5,55,0.00,CLR,,0.00,86.0,WeatherDisplay:10.37,2014-08-28 01:54:00,
2014-08-27 18:59:00,79.8,62.7,29.97,ENE,62,3.1,5.0,56,0.00,CLR,,0.00,72.0,WeatherDisplay:10.37,2014-08-28 01:59:00,
2014-08-27 19:04:00,79.3,62.2,29.97,NE,49,3.7,5.0,56,0.00,CLR,,0.00,58.0,WeatherDisplay:10.37,2014-08-28 02:04:00,
2014-08-27 19:09:00,78.7,62.2,29.97,ENE,62,2.0,3.5,57,0.00,CLR,,0.00,46.0,WeatherDisplay:10.37,2014-08-28 02:09:00,
2014-08-27 19:14:00,77.9,62.4,29.97,ENE,61,1.6,3.5,59,0.00,CLR,,0.00,35.0,WeatherDisplay:10.37,2014-08-28 02:14:00,
2014-08-27 19:19:00,77.1,62.1,29.97,ENE,74,2.8,4.6,60,0.00,CLR,,0.00,28.0,WeatherDisplay:10.37,2014-08-28 02:19:00,
2014-08-27 19:24:00,76.3,61.9,29.97,ENE,74,0.7,3.5,61,0.00,CLR,,0.00,21.0,WeatherDisplay:10.37,2014-08-28 02:24:00,
2014-08-27 19:29:00,75.5,61.6,29.98,ENE,74,0.5,2.3,62,0.00,CLR,,0.00,16.0,WeatherDisplay:10.37,2014-08-28 02:29:00,
2014-08-27 19:34:00,74.9,61.5,29.98,ENE,76,3.4,4.0,63,0.00,CLR,,0.00,11.0,WeatherDisplay:10.37,2014-08-28 02:34:00,
2014-08-27 19:39:00,74.0,61.5,29.98,ENE,77,1.1,2.3,65,0.00,CLR,,0.00,7.0,WeatherDisplay:10.37,2014-08-28 02:39:00,
2014-08-27 19:44:00,73.2,61.2,29.98,ENE,77,1.4,3.5,66,0.00,CLR,,0.00,5.0,WeatherDisplay:10.37,2014-08-28 02:44:00,
2014-08-27 19:49:00,72.5,60.9,29.98,ENE,76,0.8,3.5,67,0.00,CLR,,0.00,0.0,WeatherDisplay:10.37,2014-08-28 02:49:00,
2014-08-27 19:54:00,71.9,60.8,29.98,ENE,60,3.0,4.6,68,0.00,CLR,,0.00,0.0,WeatherDisplay:10.37,2014-08-28 02:54:00,
2014-08-27 19:59:00,71.3,60.2,29.98,ENE,58,2.6,3.5,68,0.00,CLR,,0.00,0.0,WeatherDisplay:10.37,2014-08-28 02:59:00,
2014-08-27 20:04:00,70.7,60.0,29.99,ENE,58,1.4,2.3,69,0.00,CLR,,0.00,0.0,WeatherDisplay:10.37,2014-08-28 03:04:00,